User: anonymous   Login
Location: Hohenfelde
(53.8441°N, 9.6220°E)
Time: 02:50:42
(UTC+00:00)
Language:

CZ-2D R/B - Orbit

View from above orbital plane
View from above orbital plane
View from above satellite
View from above satellite

Ground track
Ground track

The orbit data is extracted from the following two-line orbital elements,

1 37932U 11068C   20266.80001760 +.00000005 +00000-0 +21566-4 0  9997
2 37932 098.6607 201.2419 0036950 181.3335 231.9362 14.22044122458889
Epoch (UTC): 22 September 2020 19:12:01
Eccentricity: 0.0036950
inclination: 98.6607°
perigee height: 792 km
apogee height: 845 km
right ascension of ascending node: 201.2419°
argument of perigee: 181.3335°
revolutions per day: 14.22044122
mean anomaly at epoch: 231.9362°
orbit number at epoch: 45888

The dashed part of the orbit path shows where the satellite is in the earth's shadow,  

DLR